[[{"header":{"parameterUnit":"m.s-1","parameterCategory":1,"la1":30.2991,"la2":30.254,"lo1":-89.0895,"lo2":-89.0444,"dy":0.0017,"dx":0.0017,"nx":28,"ny":28,"refTime":"2023-10-19T21:00:00:Z","depth":0,"parameterNumber":2,"parameterNumberName":"U-component_of_WINDS"},"data":[0,0,0,0,0,0,0,0,0,0,0,0,0,0,0,0,0,0,0,0,0,0,0,0,0,0,0,0,0,0,0,0,0,0,0,0,0,0,0,0,0,0,0,0,0,0,0,0,0,0,0,0,0,0,0,0,0,0,-2.8963,-2.8963,0,-2.901,-2.9011,-2.9012,-2.8978,-2.8976,-2.8975,-2.8973,-2.9021,-2.9024,-2.9027,0,0,0,0,0,0,0,0,0,0,0,0,0,-2.8841,-2.8843,-2.8962,-2.8963,-2.8964,-2.901,-2.9011,-2.9012,-2.8978,-2.8976,-2.8974,-2.8972,-2.9021,-2.9024,-2.9027,0,0,0,0,0,0,0,0,0,0,0,0,0,-2.8892,-2.8844,-2.8962,-2.8952,-2.8952,-2.901,-2.9011,-2.9012,-2.8978,-2.8976,-2.8974,-2.8972,-2.9019,-2.9023,-2.9027,-2.9098,0,0,-2.904,-2.9041,0,0,0,0,0,0,0,0,-2.8889,-2.8896,-2.8953,-2.8953,-2.8953,-2.8986,-2.8986,-2.9041,-2.8979,-2.8968,-2.8973,-2.897,-2.9011,-2.9016,-2.903,-2.91,-2.9102,-2.904,-2.9042,-2.9044,-2.9045,0,0,0,0,0,0,0,-2.8885,-2.8894,-2.8981,-2.8954,-2.8954,-2.8945,-2.895,-2.8996,-2.9002,-2.8969,-2.8967,-2.8973,-2.9011,-2.9026,-2.9031,-2.9103,-2.904,-2.9044,-2.9046,-2.9048,-2.9232,-2.9234,0,0,0,0,0,0,-2.8883,-2.8891,-2.898,-2.8983,-2.8915,-2.8949,-2.8955,-2.8977,-2.9001,-2.9003,-2.8975,-2.8971,-2.902,-2.9026,-2.9032,-2.9115,-2.9044,-2.9048,-2.905,-2.9229,-2.9232,-2.9235,0,0,0,0,0,0,-2.888,-2.8891,-2.8978,-2.8936,-2.8947,-2.8954,-2.898,-2.898,-2.8995,-2.9006,-2.9006,-2.8989,-2.9019,-2.9027,-2.9081,-2.9116,-2.905,-2.9053,-2.9226,-2.923,-2.9234,-2.9281,0,0,0,0,0,0,-2.8877,-2.889,-2.8917,-2.8937,-2.8949,-2.9027,-2.8982,-2.8982,-2.9002,-2.8998,-2.9019,-2.9021,-2.9017,-2.9076,-2.9085,-2.912,-2.9057,-2.9223,-2.9228,-2.9232,-2.9276,-2.9286,-2.9294,0,0,0,0,0,-2.8873,-2.8929,-2.8919,-2.893,-2.8983,-2.9029,-2.9035,-2.903,-2.9005,-2.9032,-2.9039,-2.902,-2.9111,-2.9081,-2.9092,-2.9129,-2.9221,-2.9227,-2.9232,-2.9272,-2.9284,-2.9294,0,0,0,0,0,0,-2.8912,-2.8931,-2.892,-2.8984,-2.9005,-2.9023,-2.9056,-2.9043,-2.9071,-2.9066,-2.9059,-2.9064,-2.9121,-2.9131,-2.9098,-2.9198,-2.9162,-2.917,-2.9189,-2.92,-2.9208,-2.9204,-2.906,0,0,0,0,0,-2.8928,-2.8964,-2.8979,-2.9034,-2.9045,-2.9049,-2.9069,-2.9063,-2.9084,-2.9093,-2.9104,-2.9125,-2.9158,-2.918,-2.9211,-2.9278,-2.9282,-2.9309,-2.9318,-2.9325,-2.9331,-2.9366,-2.9378,-2.9253,-2.9253,-2.9253,0,0,-2.8961,-2.8976,-2.8999,-2.9042,-2.9057,-2.9094,-2.9056,-2.9097,-2.9124,-2.9099,-2.9151,-2.916,-2.9183,-2.9244,-2.9271,-2.9254,-2.9367,-2.9332,-2.9338,-2.934,-2.9373,-2.9385,-2.9395,-2.9257,-2.9256,-2.9256,0,0,-2.904,-2.9056,-2.9103,-2.912,-2.9144,-2.9146,-2.9158,-2.9178,-2.9183,-2.9235,-2.9217,-2.9249,-2.9307,-2.9323,-2.934,-2.9426,-2.941,-2.9437,-2.9482,-2.9516,-2.9526,-2.9534,-2.9563,-2.9574,-2.9444,-2.9444,-2.9444,0,-2.9078,-2.9133,-2.9129,-2.917,-2.9189,-2.917,-2.9216,-2.9233,-2.9266,-2.9279,-2.9259,-2.9331,-2.9345,-2.9409,-2.943,-2.9445,-2.9457,-2.9433,-2.9525,-2.9533,-2.9541,-2.9569,-2.958,-2.9447,-2.9446,-2.9446,-2.9446,0,-2.9178,-2.9216,-2.9251,-2.9284,-2.9307,-2.9351,-2.9353,-2.9377,-2.9371,-2.9375,-2.9428,-2.9445,-2.9479,-2.9494,-2.9488,-2.9557,-2.9545,-2.9526,-2.9489,-2.9556,-2.9582,-2.9592,-2.9451,-2.945,-2.9449,-2.9448,0,0,-2.928,-2.9311,-2.9323,-2.9337,-2.9363,-2.9393,-2.9436,-2.947,-2.9489,-2.9514,-2.9549,-2.9599,-2.9581,-2.9599,-2.9595,-2.9625,-2.9691,-2.9602,-2.9602,-2.9615,-2.9766,-2.9779,-2.9791,-2.9681,-2.9683,-2.9685,-2.9763,0,-2.9359,-2.9434,-2.9432,-2.9502,-2.9537,-2.9519,-2.9557,-2.9577,-2.9583,-2.9613,-2.962,-2.9654,-2.9629,-2.9639,-2.9669,-2.9676,-2.972,-2.9671,-2.9712,-2.9714,-2.9704,-2.9805,-2.9818,-2.9891,-2.9774,-2.9775,-2.9777,0,-2.946,-2.9487,-2.9561,-2.9581,-2.9595,-2.9629,-2.9659,-2.9689,-2.9711,-2.9713,-2.9735,-2.9726,-2.9769,-2.9734,-2.9793,-2.976,-2.9777,-2.9784,-2.9786,-2.9788,-2.9747,-2.9806,-2.9915,-2.9925,-2.9793,-2.9791,-2.979,0,-2.9524,-2.958,-2.963,-2.9644,-2.9669,-2.9693,-2.9705,-2.9725,-2.9745,-2.9772,-2.9785,-2.9817,-2.9833,-2.9858,-2.9858,-2.9833,-2.9917,-2.9882,-2.9919,-2.9919,-2.9935,-2.9934,-3.0045,-2.9951,-2.9951,-2.9951,-2.9951,0,-2.961,-2.9655,-2.966,-2.969,-2.974,-2.9738,-2.9788,-2.9797,-2.9815,-2.9847,-2.9835,-2.9866,-2.9865,-2.9896,-2.9897,-2.9944,-2.9953,-2.9955,-2.9954,-2.9954,-2.9954,-2.9963,-2.9957,-2.9954,-2.9953,-2.9953,-2.9952,0,-2.9689,-2.9694,-2.9748,-2.9768,-2.9775,-2.981,-2.9827,-2.9857,-2.9862,-2.9903,-2.9913,-2.9921,-2.9957,-2.996,-3.0002,-3.0002,-3.006,-3.0055,-3.0052,-3.005,-3.0086,-3.0081,-3.0205,-3.022,-3.0119,-3.012,-3.0121,0,-2.9742,-2.9776,-2.9801,-2.9821,-2.9834,-2.9868,-2.9889,-2.9889,-2.991,-2.9939,-2.9964,-2.9999,-3.0026,-3.0085,-3.0094,-3.0126,-3.012,-3.0161,-3.0124,-3.0123,-3.0118,-3.0114,-3.0117,-3.0167,-3.0168,-3.0169,-3.017,0,-2.9835,-2.9836,-2.9866,-2.9898,-2.9923,-2.9947,-2.997,-2.9988,-2.9991,-3.0016,-3.0052,-3.0074,-3.0117,-3.0151,-3.0182,-3.0194,-3.0182,-3.0182,-3.0192,-3.0191,-3.0187,-3.0187,-3.0068,-3.0178,-3.0178,-3.0177,-3.0177,-3.0176,-2.9901,-2.993,-2.9951,-2.9986,-3.0003,-3.0025,-3.0053,-3.0063,-3.0093,-3.0128,-3.0126,-3.0166,-3.0188,-3.0229,-3.0243,-3.0274,-3.026,-3.0275,-3.0278,-3.0281,-3.0283,-3.0185,-3.028,-3.028,-3.028,-3.028,-3.0279,0,-2.9991,-3.0004,-3.0036,-3.0068,-3.0095,-3.0084,-3.0109,-3.0132,-3.0167,-3.0188,-3.0216,-3.0258,-3.0291,-3.0304,-3.0337,-3.0359,-3.0354,-3.0367,-3.0364,-3.0366,-3.0295,-3.0282,-3.037,-3.037,-3.037,-3.037,-3.037,-3.037,-3.0041,-3.0089,-3.0093,-3.015,-3.0163,-3.0202,-3.0217,-3.0237,-3.0254,-3.0301,-3.0329,-3.0337,-3.0355,-3.0389,-3.0419,-3.0422,-3.0433,-3.0448,-3.0448,-3.0381,-3.0372,-3.0363,-3.035,-3.0451,-3.0451,-3.0517,-3.0517,-3.0518]},{"header":{"parameterUnit":"m.s-1","parameterCategory":1,"la1":30.2991,"la2":30.254,"lo1":-89.0895,"lo2":-89.0444,"dy":0.0017,"dx":0.0017,"nx":28,"ny":28,"refTime":"2023-10-19T21:00:00:Z","depth":0,"parameterNumber":3,"parameterNumberName":"V-component_of_WINDS"},"data":[0,0,0,0,0,0,0,0,0,0,0,0,0,0,0,0,0,0,0,0,0,0,0,0,0,0,0,0,0,0,0,0,0,0,0,0,0,0,0,0,0,0,0,0,0,0,0,0,0,0,0,0,0,0,0,0,0,0,1.0203,1.0203,0,1.0216,1.0217,1.0217,1.0216,1.0215,1.0215,1.0215,1.0226,1.0227,1.0227,0,0,0,0,0,0,0,0,0,0,0,0,0,1.0177,1.0177,1.0203,1.0203,1.0204,1.0216,1.0217,1.0217,1.0216,1.0215,1.0215,1.0215,1.0226,1.0227,1.0227,0,0,0,0,0,0,0,0,0,0,0,0,0,1.0189,1.0177,1.0203,1.0205,1.0205,1.0216,1.0217,1.0217,1.0216,1.0215,1.0215,1.0215,1.0226,1.0226,1.0227,1.0237,0,0,1.0229,1.023,0,0,0,0,0,0,0,0,1.0188,1.019,1.0204,1.0205,1.0205,1.0214,1.0211,1.0224,1.0216,1.0212,1.0215,1.0215,1.0222,1.0223,1.0226,1.0238,1.0238,1.0229,1.023,1.023,1.023,0,0,0,0,0,0,0,1.0187,1.0189,1.0208,1.0204,1.0205,1.0205,1.0206,1.0214,1.0218,1.0212,1.0212,1.0214,1.0222,1.0226,1.0226,1.0238,1.0229,1.023,1.023,1.0231,1.0261,1.0262,0,0,0,0,0,0,1.0186,1.0188,1.0208,1.0209,1.0196,1.0205,1.0207,1.0211,1.0218,1.0219,1.0214,1.0213,1.0224,1.0226,1.0227,1.0241,1.023,1.0231,1.0231,1.0261,1.0261,1.0262,0,0,0,0,0,0,1.0186,1.0188,1.0207,1.0199,1.0201,1.0206,1.0211,1.0212,1.0215,1.022,1.022,1.0216,1.0224,1.0226,1.0235,1.0241,1.0231,1.0232,1.0261,1.0261,1.0262,1.0268,0,0,0,0,0,0,1.0185,1.0188,1.0192,1.0199,1.0202,1.0216,1.0212,1.0212,1.0217,1.0216,1.0222,1.0223,1.0224,1.0234,1.0236,1.0242,1.0232,1.026,1.0261,1.0262,1.0267,1.0268,1.027,0,0,0,0,0,1.0184,1.0192,1.0192,1.0194,1.0207,1.0216,1.0218,1.022,1.0217,1.0221,1.0225,1.0223,1.024,1.0235,1.0237,1.0243,1.026,1.0261,1.0261,1.0266,1.0268,1.027,0,0,0,0,0,0,1.0183,1.0192,1.0193,1.0203,1.0209,1.0216,1.0221,1.0221,1.0227,1.0227,1.0228,1.023,1.024,1.0242,1.0237,1.0255,1.025,1.0251,1.0253,1.0254,1.0256,1.0255,1.0233,0,0,0,0,0,1.0185,1.0192,1.02,1.0208,1.0211,1.0216,1.022,1.0221,1.0227,1.0229,1.0233,1.0239,1.0246,1.025,1.0256,1.0267,1.0269,1.0273,1.0274,1.0275,1.0276,1.0284,1.0286,1.0265,1.0265,1.0265,0,0,1.0187,1.0193,1.0197,1.0208,1.0213,1.0221,1.0218,1.0225,1.0232,1.023,1.024,1.0244,1.025,1.0261,1.0266,1.0263,1.0283,1.0276,1.0277,1.0278,1.0285,1.0287,1.0289,1.0265,1.0265,1.0265,0,0,1.0195,1.02,1.0209,1.0215,1.0223,1.0226,1.0228,1.0236,1.0238,1.0249,1.0249,1.0256,1.0267,1.0272,1.0276,1.029,1.0289,1.0292,1.0299,1.0306,1.0308,1.031,1.0316,1.0318,1.0293,1.0293,1.0293,0,1.0197,1.0209,1.0213,1.0222,1.0227,1.0228,1.0237,1.0242,1.0252,1.0255,1.0253,1.0269,1.0273,1.0286,1.029,1.0293,1.0296,1.0291,1.0308,1.0309,1.0311,1.0317,1.0319,1.0293,1.0293,1.0293,1.0293,0,1.0212,1.022,1.0226,1.0237,1.0243,1.0252,1.0257,1.0263,1.0265,1.0269,1.028,1.0285,1.0294,1.0297,1.0298,1.0311,1.031,1.0307,1.0302,1.0313,1.0319,1.0321,1.0294,1.0294,1.0294,1.0294,0,0,1.0218,1.0233,1.0235,1.0242,1.0252,1.0259,1.0268,1.0278,1.0284,1.029,1.0299,1.031,1.0309,1.0314,1.0315,1.0322,1.0335,1.0319,1.0319,1.0323,1.0352,1.0354,1.0356,1.0334,1.0335,1.0335,1.0352,0,1.0228,1.0246,1.0251,1.0266,1.0275,1.0278,1.0287,1.0294,1.0298,1.0307,1.0311,1.032,1.0317,1.032,1.0327,1.0332,1.0341,1.033,1.0343,1.0343,1.0342,1.0359,1.0361,1.0376,1.0354,1.0354,1.0354,0,1.0242,1.0252,1.0268,1.028,1.0284,1.0292,1.0302,1.031,1.0319,1.0322,1.0329,1.0331,1.0341,1.0336,1.0351,1.0345,1.035,1.0353,1.0354,1.0356,1.035,1.0362,1.0381,1.0383,1.0357,1.0357,1.0357,0,1.0247,1.0264,1.0277,1.0281,1.0295,1.0301,1.0306,1.0315,1.0322,1.0331,1.0336,1.0345,1.0351,1.0359,1.0363,1.0359,1.0379,1.0373,1.0382,1.0382,1.0386,1.0386,1.0407,1.0388,1.0388,1.0388,1.0388,0,1.0258,1.0268,1.0279,1.0287,1.0299,1.0305,1.0317,1.0323,1.0331,1.0341,1.0343,1.0351,1.0357,1.0366,1.037,1.0383,1.0385,1.0388,1.0389,1.0388,1.0388,1.0392,1.0391,1.0389,1.0389,1.0389,1.0389,0,1.0265,1.0273,1.0287,1.03,1.0303,1.0312,1.0323,1.0331,1.0336,1.0348,1.0351,1.036,1.0371,1.0377,1.0391,1.0393,1.0409,1.0408,1.0406,1.0407,1.0415,1.0415,1.044,1.0445,1.0422,1.0423,1.0423,0,1.0272,1.028,1.0295,1.0302,1.0308,1.0319,1.0327,1.0333,1.0341,1.0354,1.0361,1.0373,1.0383,1.0402,1.0409,1.042,1.0421,1.0429,1.0422,1.0422,1.0422,1.0422,1.0424,1.043,1.043,1.043,1.043,0,1.0283,1.0287,1.0298,1.0312,1.0321,1.0331,1.0341,1.0347,1.0356,1.0364,1.0377,1.0385,1.0401,1.0414,1.0426,1.0432,1.0433,1.0433,1.0436,1.0435,1.0434,1.0436,1.041,1.0432,1.0432,1.0432,1.0432,1.0432,1.0291,1.0299,1.0312,1.0325,1.0334,1.0344,1.0353,1.0361,1.0372,1.0387,1.039,1.0404,1.0415,1.0432,1.0439,1.045,1.0448,1.0452,1.0453,1.0454,1.0455,1.0432,1.0452,1.0452,1.0452,1.0452,1.0452,0,1.0303,1.0312,1.0324,1.034,1.0351,1.0352,1.0365,1.0373,1.0386,1.0397,1.0408,1.0424,1.0437,1.0446,1.0459,1.0467,1.0468,1.047,1.047,1.0472,1.0455,1.0452,1.0469,1.0469,1.0469,1.0469,1.0469,1.0469,1.0311,1.0327,1.0333,1.0353,1.0362,1.0377,1.0384,1.0394,1.0403,1.0421,1.0433,1.0439,1.045,1.0465,1.0477,1.048,1.0485,1.0487,1.049,1.0474,1.0472,1.0471,1.0468,1.0488,1.0488,1.0506,1.0506,1.0506]}]]